Location: Seattle
(47.6064°N, 122.3308°W)
Time: 04:03:03
(UTC-07:00)

ITAMSAT 1 - Visible Passes

Search period start: 28 March 2023 00:00
Search period end: 07 April 2023 00:00
Orbit: 784 x 795 km, 98.8° (Epoch: 27 March)

Date Brightness Start Highest point End Pass type
(mag) Time Alt. Az. Time Alt. Az. Time Alt. Az.
28 Mar 7.7 20:19:32 10° SSE 20:24:41 64° ENE 20:29:52 10° N visible
28 Mar 10.1 22:00:52 10° SW 22:04:35 19° W 22:08:18 10° NW visible
29 Mar 9.2 21:29:56 10° SSW 21:34:38 34° W 21:39:24 10° NNW visible
30 Mar 8.2 20:59:41 10° S 21:04:49 61° WSW 21:10:02 10° NNW visible
31 Mar 7.6 20:29:57 10° SSE 20:35:09 77° ENE 20:40:24 10° NNW visible
31 Mar 10.3 22:12:03 10° SW 22:15:12 16° W 22:18:22 10° NW visible
01 Apr 9.5 21:40:45 10° SSW 21:45:12 28° W 21:49:42 10° NW visible
02 Apr 8.5 21:10:18 10° S 21:15:21 50° W 21:20:27 10° NNW visible
03 Apr 7.7 20:40:24 10° SSE 20:45:37 88° WSW 20:50:54 10° NNW visible
03 Apr 10.4 22:23:28 10° WSW 22:25:50 13° W 22:28:12 10° WNW visible
04 Apr 7.9 20:10:58 10° SE 20:16:02 54° ENE 20:21:08 10° N visible
04 Apr 9.8 21:51:40 10° SW 21:55:47 23° W 21:59:56 10° NW visible
05 Apr 8.9 21:20:59 10° SSW 21:25:52 41° W 21:30:50 10° NNW visible
06 Apr 7.9 20:50:54 10° S 20:56:06 73° WSW 21:01:22 10° NNW visible
06 Apr 10.6 22:35:43 10° W 22:36:28 10° W 22:37:13 10° WNW visible
